Year,Month,Day,Hour,Minute,Value (Times are PST for temperature in C)
2013,07,25,00,00,14.80
2013,07,25,00,01,14.80
2013,07,25,00,02,14.80
2013,07,25,00,03,14.80
2013,07,25,00,04,14.80
2013,07,25,00,05,14.80
2013,07,25,00,06,14.80
2013,07,25,00,07,14.80
2013,07,25,00,08,14.70
2013,07,25,00,09,14.70
2013,07,25,00,10,14.70
2013,07,25,00,11,14.70
2013,07,25,00,12,14.70
2013,07,25,00,16,14.60
2013,07,25,00,17,14.60
2013,07,25,00,18,14.60
2013,07,25,00,19,14.60
2013,07,25,00,20,14.60
2013,07,25,00,21,14.60
2013,07,25,00,22,14.60
2013,07,25,00,23,14.60
2013,07,25,00,24,14.50
2013,07,25,00,25,14.50
2013,07,25,00,26,14.50
2013,07,25,00,27,14.50
2013,07,25,00,28,14.50
2013,07,25,00,29,14.50
2013,07,25,00,30,14.50
2013,07,25,00,31,14.40
2013,07,25,00,32,14.40
2013,07,25,00,33,14.40
2013,07,25,00,34,14.40
2013,07,25,00,35,14.40
2013,07,25,00,36,14.30
2013,07,25,00,37,14.30
2013,07,25,00,38,14.30
2013,07,25,00,39,14.20
2013,07,25,00,40,14.20
2013,07,25,00,41,14.20
2013,07,25,00,42,14.20
2013,07,25,00,43,14.20
2013,07,25,00,44,14.20
2013,07,25,00,45,14.20
2013,07,25,00,46,14.20
2013,07,25,00,47,14.20
2013,07,25,00,48,14.20
2013,07,25,00,49,14.20
2013,07,25,00,50,14.20
2013,07,25,00,51,14.20
2013,07,25,00,52,14.20
2013,07,25,00,53,14.20
2013,07,25,00,54,14.10
2013,07,25,00,55,14.20
2013,07,25,00,56,14.20
2013,07,25,00,57,14.20
2013,07,25,00,58,14.20
2013,07,25,00,59,14.20
2013,07,25,01,00,14.20
2013,07,25,01,01,14.20
2013,07,25,01,02,14.20
2013,07,25,01,03,14.20
2013,07,25,01,04,14.20
2013,07,25,01,05,14.20
2013,07,25,01,06,14.20
2013,07,25,01,07,14.20
2013,07,25,01,08,14.20
2013,07,25,01,09,14.20
2013,07,25,01,10,14.20
2013,07,25,01,11,14.20
2013,07,25,01,12,14.20
2013,07,25,01,13,14.20
2013,07,25,01,14,14.20
2013,07,25,01,15,14.20
2013,07,25,01,16,14.20
2013,07,25,01,17,14.20
2013,07,25,01,18,14.20
2013,07,25,01,19,14.20
2013,07,25,01,20,14.20
2013,07,25,01,21,14.20
2013,07,25,01,22,14.20
2013,07,25,01,23,14.20
2013,07,25,01,24,14.20
2013,07,25,01,25,14.20
2013,07,25,01,26,14.20
2013,07,25,01,27,14.20
2013,07,25,01,28,14.20
2013,07,25,01,29,14.20
2013,07,25,01,30,14.10
2013,07,25,01,31,14.10
2013,07,25,01,32,14.10
2013,07,25,01,33,14.10
2013,07,25,01,34,14.10
2013,07,25,01,35,14.00
2013,07,25,01,36,14.00
2013,07,25,01,37,14.00
2013,07,25,01,38,14.00
2013,07,25,01,39,14.00
2013,07,25,01,40,14.00
2013,07,25,01,41,14.00
2013,07,25,01,42,14.00
2013,07,25,01,43,14.00
2013,07,25,01,44,14.00
2013,07,25,01,45,13.90
2013,07,25,01,46,13.90
2013,07,25,01,47,13.90
2013,07,25,01,48,13.90
2013,07,25,01,49,13.90
2013,07,25,01,50,13.90
2013,07,25,01,51,13.90
2013,07,25,01,52,13.80
2013,07,25,01,53,13.80
2013,07,25,01,54,13.80
2013,07,25,01,55,13.80
2013,07,25,01,56,13.80
2013,07,25,01,57,13.80
2013,07,25,01,58,13.80
2013,07,25,01,59,13.80
2013,07,25,02,00,13.80
2013,07,25,02,01,13.80
2013,07,25,02,02,13.80
2013,07,25,02,03,13.80
2013,07,25,02,04,13.80
2013,07,25,02,05,13.90
2013,07,25,02,06,13.90
2013,07,25,02,07,13.90
2013,07,25,02,08,13.90
2013,07,25,02,09,13.90
2013,07,25,02,10,13.90
2013,07,25,02,11,13.90
2013,07,25,02,12,13.90
2013,07,25,02,13,13.90
2013,07,25,02,14,13.90
2013,07,25,02,15,13.90
2013,07,25,02,16,13.90
2013,07,25,02,17,13.90
2013,07,25,02,18,13.90
2013,07,25,02,19,13.90
2013,07,25,02,20,13.90
2013,07,25,02,21,13.90
2013,07,25,02,22,13.90
2013,07,25,02,23,13.90
2013,07,25,02,24,13.90
2013,07,25,02,25,13.90
2013,07,25,02,26,13.90
2013,07,25,02,27,13.90
2013,07,25,02,28,13.90
2013,07,25,02,29,13.90
2013,07,25,02,30,13.90
2013,07,25,02,31,13.90
2013,07,25,02,32,13.90
2013,07,25,02,33,13.90
2013,07,25,02,34,14.00
2013,07,25,02,35,14.00
2013,07,25,02,36,14.00
2013,07,25,02,37,14.00
2013,07,25,02,38,14.00
2013,07,25,02,39,14.00
2013,07,25,02,40,13.90
2013,07,25,02,41,13.90
2013,07,25,02,42,13.90
2013,07,25,02,43,13.90
2013,07,25,02,44,13.90
2013,07,25,02,45,13.80
2013,07,25,02,46,13.80
2013,07,25,02,47,13.80
2013,07,25,02,48,13.80
2013,07,25,02,49,13.70
2013,07,25,02,50,13.70
2013,07,25,02,51,13.70
2013,07,25,02,52,13.70
2013,07,25,02,53,13.70
2013,07,25,02,54,13.70
2013,07,25,02,55,13.70
2013,07,25,02,56,13.70
2013,07,25,02,57,13.70
2013,07,25,02,58,13.70
2013,07,25,02,59,13.70
2013,07,25,03,00,13.70
2013,07,25,03,01,13.70
2013,07,25,03,02,13.70
2013,07,25,03,03,13.70
2013,07,25,03,04,13.70
2013,07,25,03,05,13.70
2013,07,25,03,06,13.80
2013,07,25,03,07,13.70
2013,07,25,03,08,13.70
2013,07,25,03,09,13.70
2013,07,25,03,10,13.70
2013,07,25,03,11,13.70
2013,07,25,03,12,13.70
2013,07,25,03,13,13.70
2013,07,25,03,14,13.70
2013,07,25,03,15,13.70
2013,07,25,03,16,13.70
2013,07,25,03,17,13.70
2013,07,25,03,18,13.70
2013,07,25,03,19,13.70
2013,07,25,03,20,13.70
2013,07,25,03,21,13.60
2013,07,25,03,22,13.60
2013,07,25,03,23,13.60
2013,07,25,03,24,13.50
2013,07,25,03,25,13.50
2013,07,25,03,26,13.50
2013,07,25,03,27,13.40
2013,07,25,03,28,13.40
2013,07,25,03,29,13.40
2013,07,25,03,30,13.30
2013,07,25,03,31,13.30
2013,07,25,03,32,13.30
2013,07,25,03,33,13.30
2013,07,25,03,34,13.20
2013,07,25,03,35,13.20
2013,07,25,03,36,13.20
2013,07,25,03,37,13.10
2013,07,25,03,38,13.10
2013,07,25,03,39,13.00
2013,07,25,03,40,13.00
2013,07,25,03,41,13.00
2013,07,25,03,42,12.90
2013,07,25,03,43,12.90
2013,07,25,03,44,12.90
2013,07,25,03,45,12.90
2013,07,25,03,46,12.80
2013,07,25,03,47,12.80
2013,07,25,03,48,12.80
2013,07,25,03,49,12.80
2013,07,25,03,50,12.80
2013,07,25,03,51,12.80
2013,07,25,03,52,12.80
2013,07,25,03,53,12.80
2013,07,25,03,54,12.80
2013,07,25,03,55,12.80
2013,07,25,03,56,12.80
2013,07,25,03,57,12.80
2013,07,25,03,58,12.80
2013,07,25,03,59,12.80
2013,07,25,04,00,12.80
2013,07,25,04,01,12.80
2013,07,25,04,02,12.80
2013,07,25,04,03,12.80
2013,07,25,04,04,12.80
2013,07,25,04,05,12.80
2013,07,25,04,06,12.80
2013,07,25,04,07,12.80
2013,07,25,04,08,12.80
2013,07,25,04,09,12.80
2013,07,25,04,10,12.80
2013,07,25,04,11,12.80
2013,07,25,04,12,12.90
2013,07,25,04,13,12.90
2013,07,25,04,14,12.90
2013,07,25,04,15,13.00
2013,07,25,04,16,13.00
2013,07,25,04,17,13.00
2013,07,25,04,18,13.00
2013,07,25,04,19,13.10
2013,07,25,04,20,13.10
2013,07,25,04,21,13.10
2013,07,25,04,22,13.10
2013,07,25,04,23,13.20
2013,07,25,04,24,13.20
2013,07,25,04,25,13.20
2013,07,25,04,26,13.20
2013,07,25,04,27,13.20
2013,07,25,04,28,13.30
2013,07,25,04,29,13.30
2013,07,25,04,30,13.30
2013,07,25,04,31,13.30
2013,07,25,04,32,13.30
2013,07,25,04,33,13.30
2013,07,25,04,34,13.30
2013,07,25,04,35,13.30
2013,07,25,04,36,13.30
2013,07,25,04,37,13.30
2013,07,25,04,38,13.30
2013,07,25,04,39,13.30
2013,07,25,04,40,13.30
2013,07,25,04,41,13.30
2013,07,25,04,42,13.30
2013,07,25,04,43,13.30
2013,07,25,04,44,13.30
2013,07,25,04,45,13.30
2013,07,25,04,46,13.30
2013,07,25,04,47,13.30
2013,07,25,04,48,13.30
2013,07,25,04,49,13.30
2013,07,25,04,50,13.30
2013,07,25,04,51,13.30
2013,07,25,04,52,13.30
2013,07,25,04,53,13.30
2013,07,25,04,54,13.30
2013,07,25,04,55,13.30
2013,07,25,04,56,13.30
2013,07,25,04,57,13.30
2013,07,25,04,58,13.30
2013,07,25,04,59,13.30
2013,07,25,05,00,13.30
2013,07,25,05,01,13.30
2013,07,25,05,02,13.30
2013,07,25,05,03,13.30
2013,07,25,05,04,13.30
2013,07,25,05,05,13.30
2013,07,25,05,06,13.30
2013,07,25,05,07,13.30
2013,07,25,05,08,13.30
2013,07,25,05,09,13.20
2013,07,25,05,10,13.20
2013,07,25,05,11,13.20
2013,07,25,05,12,13.20
2013,07,25,05,13,13.20
2013,07,25,05,14,13.20
2013,07,25,05,15,13.20
2013,07,25,05,16,13.20
2013,07,25,05,17,13.20
2013,07,25,05,18,13.30
2013,07,25,05,19,13.30
2013,07,25,05,20,13.30
2013,07,25,05,21,13.30
2013,07,25,05,22,13.30
2013,07,25,05,23,13.30
2013,07,25,05,24,13.30
2013,07,25,05,25,13.30
2013,07,25,05,26,13.30
2013,07,25,05,27,13.30
2013,07,25,05,28,13.30
2013,07,25,05,29,13.30
2013,07,25,05,30,13.30
2013,07,25,05,31,13.30
2013,07,25,05,32,13.30
2013,07,25,05,33,13.30
2013,07,25,05,34,13.30
2013,07,25,05,35,13.30
2013,07,25,05,36,13.30
2013,07,25,05,37,13.30
2013,07,25,05,38,13.30
2013,07,25,05,39,13.30
2013,07,25,05,40,13.30
2013,07,25,05,41,13.30
2013,07,25,05,42,13.30
2013,07,25,05,43,13.30
2013,07,25,05,44,13.30
2013,07,25,05,45,13.30
2013,07,25,05,46,13.30
2013,07,25,05,47,13.30
2013,07,25,05,48,13.30
2013,07,25,05,49,13.30
2013,07,25,05,50,13.30
2013,07,25,05,51,13.30
2013,07,25,05,52,13.30
2013,07,25,05,53,13.30
2013,07,25,05,54,13.30
2013,07,25,05,55,13.30
2013,07,25,05,56,13.30
2013,07,25,05,57,13.30
2013,07,25,05,58,13.30
2013,07,25,05,59,13.30
2013,07,25,06,00,13.30
2013,07,25,06,01,13.30
2013,07,25,06,02,13.20
2013,07,25,06,03,13.20
2013,07,25,06,04,13.20
2013,07,25,06,05,13.20
2013,07,25,06,06,13.20
2013,07,25,06,07,13.20
2013,07,25,06,08,13.20
2013,07,25,06,09,13.10
2013,07,25,06,10,13.10
2013,07,25,06,11,13.10
2013,07,25,06,12,13.00
2013,07,25,06,13,13.00
2013,07,25,06,14,13.00
2013,07,25,06,15,13.00
2013,07,25,06,16,13.00
2013,07,25,06,17,12.90
2013,07,25,06,18,12.90
2013,07,25,06,19,12.90
2013,07,25,06,20,12.90
2013,07,25,06,21,12.90
2013,07,25,06,22,12.90
2013,07,25,06,23,13.00
2013,07,25,06,24,13.00
2013,07,25,06,25,13.00
2013,07,25,06,26,13.10
2013,07,25,06,27,13.10
2013,07,25,06,28,13.10
2013,07,25,06,29,13.10
2013,07,25,06,30,13.20
2013,07,25,06,31,13.20
2013,07,25,06,32,13.20
2013,07,25,06,33,13.20
2013,07,25,06,34,13.20
2013,07,25,06,35,13.30
2013,07,25,06,36,13.30
2013,07,25,06,37,13.30
2013,07,25,06,38,13.30
2013,07,25,06,39,13.30
2013,07,25,06,40,13.30
2013,07,25,06,41,13.40
2013,07,25,06,42,13.40
2013,07,25,06,43,13.40
2013,07,25,06,44,13.50
2013,07,25,06,45,13.50
2013,07,25,06,46,13.60
2013,07,25,06,47,13.60
2013,07,25,06,48,13.70
2013,07,25,06,49,13.70
2013,07,25,06,50,13.70
2013,07,25,06,51,13.80
2013,07,25,06,52,13.90
2013,07,25,06,53,13.90
2013,07,25,06,54,14.00
2013,07,25,06,55,14.10
2013,07,25,06,56,14.20
2013,07,25,06,57,14.20
2013,07,25,06,58,14.30
2013,07,25,06,59,14.40
2013,07,25,07,00,14.40
2013,07,25,07,01,14.50
2013,07,25,07,02,14.60
2013,07,25,07,03,14.60
2013,07,25,07,04,14.70
2013,07,25,07,05,14.70
2013,07,25,07,06,14.80
2013,07,25,07,07,14.80
2013,07,25,07,08,14.90
2013,07,25,07,09,14.90
2013,07,25,07,10,15.00
2013,07,25,07,11,15.00
2013,07,25,07,12,15.10
2013,07,25,07,13,15.10
2013,07,25,07,14,15.20
2013,07,25,07,15,15.20
2013,07,25,07,16,15.30
2013,07,25,07,17,15.30
2013,07,25,07,18,15.30
2013,07,25,07,19,15.40
2013,07,25,07,20,15.50
2013,07,25,07,21,15.50
2013,07,25,07,22,15.50
2013,07,25,07,23,15.60
2013,07,25,07,24,15.60
2013,07,25,07,25,15.70
2013,07,25,07,26,15.80
2013,07,25,07,27,15.80
2013,07,25,07,28,15.80
2013,07,25,07,29,15.90
2013,07,25,07,30,15.90
2013,07,25,07,31,16.00
2013,07,25,07,32,16.10
2013,07,25,07,33,16.10
2013,07,25,07,34,16.10
2013,07,25,07,35,16.20
2013,07,25,07,36,16.20
2013,07,25,07,37,16.20
2013,07,25,07,38,16.30
2013,07,25,07,39,16.40
2013,07,25,07,40,16.40
2013,07,25,07,41,16.40
2013,07,25,07,42,16.50
2013,07,25,07,43,16.60
2013,07,25,07,44,16.70
2013,07,25,07,45,16.70
2013,07,25,07,46,16.80
2013,07,25,07,47,16.80
2013,07,25,07,48,16.90
2013,07,25,07,49,17.00
2013,07,25,07,50,17.10
2013,07,25,07,51,17.20
2013,07,25,07,52,17.30
2013,07,25,07,53,17.50
2013,07,25,07,54,17.60
2013,07,25,07,55,17.70
2013,07,25,07,56,17.90
2013,07,25,07,57,18.10
2013,07,25,07,58,18.20
2013,07,25,07,59,18.30
2013,07,25,08,00,18.50
2013,07,25,08,01,18.60
2013,07,25,08,02,18.70
2013,07,25,08,03,18.80
2013,07,25,08,04,18.90
2013,07,25,08,05,19.00
2013,07,25,08,06,19.10
2013,07,25,08,07,19.10
2013,07,25,08,08,19.10
2013,07,25,08,09,19.20
2013,07,25,08,10,19.20
2013,07,25,08,11,19.30
2013,07,25,08,12,19.30
2013,07,25,08,13,19.40
2013,07,25,08,14,19.40
2013,07,25,08,15,19.50
2013,07,25,08,16,19.60
2013,07,25,08,17,19.60
2013,07,25,08,18,19.80
2013,07,25,08,19,19.80
2013,07,25,08,20,19.90
2013,07,25,08,21,19.90
2013,07,25,08,22,20.10
2013,07,25,08,23,20.20
2013,07,25,08,24,20.20
2013,07,25,08,25,20.20
2013,07,25,08,26,20.20
2013,07,25,08,27,20.20
2013,07,25,08,28,20.20
2013,07,25,08,29,20.20
2013,07,25,08,30,20.20
2013,07,25,08,31,20.30
2013,07,25,08,32,20.30
2013,07,25,08,33,20.40
2013,07,25,08,34,20.40
2013,07,25,08,35,20.40
2013,07,25,08,36,20.40
2013,07,25,08,37,20.40
2013,07,25,08,38,20.40
2013,07,25,08,39,20.40
2013,07,25,08,40,20.40
2013,07,25,08,41,20.40
2013,07,25,08,42,20.40
2013,07,25,08,43,20.40
2013,07,25,08,44,20.40
2013,07,25,08,45,20.50
2013,07,25,08,46,20.50
2013,07,25,08,47,20.60
2013,07,25,08,48,20.70
2013,07,25,08,49,20.80
2013,07,25,08,50,20.80
2013,07,25,08,51,20.90
2013,07,25,08,52,20.90
2013,07,25,08,53,21.00
2013,07,25,08,54,21.00
2013,07,25,08,55,21.10
2013,07,25,08,56,21.10
2013,07,25,08,57,21.00
2013,07,25,08,58,20.90
2013,07,25,08,59,20.80
2013,07,25,09,00,20.60
2013,07,25,09,01,20.60
2013,07,25,09,02,20.60
2013,07,25,09,03,20.60
2013,07,25,09,04,20.60
2013,07,25,09,05,20.70
2013,07,25,09,06,20.80
2013,07,25,09,07,20.80
2013,07,25,09,08,20.90
2013,07,25,09,09,20.90
2013,07,25,09,10,21.00
2013,07,25,09,11,21.10
2013,07,25,09,12,21.10
2013,07,25,09,13,21.00
2013,07,25,09,14,21.00
2013,07,25,09,15,20.90
2013,07,25,09,16,20.80
2013,07,25,09,17,20.80
2013,07,25,09,18,20.80
2013,07,25,09,19,20.80
2013,07,25,09,20,20.60
2013,07,25,09,21,20.50
2013,07,25,09,22,20.40
2013,07,25,09,23,20.40
2013,07,25,09,24,20.40
2013,07,25,09,25,20.40
2013,07,25,09,26,20.30
2013,07,25,09,27,20.30
2013,07,25,09,28,20.40
2013,07,25,09,29,20.50
2013,07,25,09,30,20.50
2013,07,25,09,31,20.40
2013,07,25,09,32,20.30
2013,07,25,09,33,20.30
2013,07,25,09,34,20.20
2013,07,25,09,35,20.20
2013,07,25,09,36,20.20
2013,07,25,09,37,20.20
2013,07,25,09,38,20.10
2013,07,25,09,39,20.10
2013,07,25,09,40,20.10
2013,07,25,09,41,20.10
2013,07,25,09,42,20.10
2013,07,25,09,43,20.10
2013,07,25,09,44,20.10
2013,07,25,09,45,20.10
2013,07,25,09,46,20.20
2013,07,25,09,47,20.20
2013,07,25,09,48,20.20
2013,07,25,09,49,20.20
2013,07,25,09,50,20.20
2013,07,25,09,51,20.30
2013,07,25,09,52,20.30
2013,07,25,09,53,20.30
2013,07,25,09,54,20.40
2013,07,25,09,55,20.40
2013,07,25,09,56,20.50
2013,07,25,09,57,20.50
2013,07,25,09,58,20.60
2013,07,25,09,59,20.60
2013,07,25,10,00,20.60
2013,07,25,10,01,20.70
2013,07,25,10,02,20.70
2013,07,25,10,03,20.70
2013,07,25,10,04,20.70
2013,07,25,10,05,20.60
2013,07,25,10,06,20.60
2013,07,25,10,07,20.60
2013,07,25,10,08,20.70
2013,07,25,10,09,20.80
2013,07,25,10,10,20.80
2013,07,25,10,11,20.80
2013,07,25,10,12,20.80
2013,07,25,10,13,20.70
2013,07,25,10,14,20.60
2013,07,25,10,15,20.40
2013,07,25,10,16,20.30
2013,07,25,10,17,20.30
2013,07,25,10,18,20.30
2013,07,25,10,19,20.30
2013,07,25,10,20,20.40
2013,07,25,10,21,20.50
2013,07,25,10,22,20.60
2013,07,25,10,23,20.70
2013,07,25,10,24,20.70
2013,07,25,10,25,20.80
2013,07,25,10,26,20.80
2013,07,25,10,27,20.80
2013,07,25,10,28,20.80
2013,07,25,10,29,20.80
2013,07,25,10,30,20.90
2013,07,25,10,31,20.80
2013,07,25,10,32,20.80
2013,07,25,10,33,20.80
2013,07,25,10,34,20.80
2013,07,25,10,35,20.80
2013,07,25,10,36,20.70
2013,07,25,10,37,20.70
2013,07,25,10,38,20.70
2013,07,25,10,39,20.70
2013,07,25,10,40,20.80
2013,07,25,10,41,20.90
2013,07,25,10,42,21.00
2013,07,25,10,43,21.00
2013,07,25,10,44,21.10
2013,07,25,10,45,21.10
2013,07,25,10,46,21.10
2013,07,25,10,47,21.20
2013,07,25,10,48,21.10
2013,07,25,10,49,21.10
2013,07,25,10,50,21.10
2013,07,25,10,51,21.10
2013,07,25,10,52,21.10
2013,07,25,10,53,21.10
2013,07,25,10,54,21.20
2013,07,25,10,55,21.30
2013,07,25,10,56,21.50
2013,07,25,10,57,21.60
2013,07,25,10,58,21.70
2013,07,25,10,59,21.60
2013,07,25,11,00,21.50
2013,07,25,11,01,21.40
2013,07,25,11,02,21.30
2013,07,25,11,03,21.20
2013,07,25,11,04,21.10
2013,07,25,11,05,20.90
2013,07,25,11,06,20.80
2013,07,25,11,07,20.80
2013,07,25,11,08,20.80
2013,07,25,11,09,20.80
2013,07,25,11,10,20.90
2013,07,25,11,11,21.00
2013,07,25,11,12,21.20
2013,07,25,11,13,21.30
2013,07,25,11,14,21.50
2013,07,25,11,15,21.60
2013,07,25,11,16,21.80
2013,07,25,11,17,22.00
2013,07,25,11,18,22.10
2013,07,25,11,19,22.10
2013,07,25,11,20,21.90
2013,07,25,11,21,21.60
2013,07,25,11,22,21.30
2013,07,25,11,23,21.20
2013,07,25,11,24,21.00
2013,07,25,11,25,20.90
2013,07,25,11,26,20.80
2013,07,25,11,27,20.80
2013,07,25,11,28,20.70
2013,07,25,11,29,20.60
2013,07,25,11,30,20.50
2013,07,25,11,31,20.50
2013,07,25,11,32,20.60
2013,07,25,11,33,20.60
2013,07,25,11,34,20.70
2013,07,25,11,35,20.70
2013,07,25,11,36,20.80
2013,07,25,11,37,20.90
2013,07,25,11,38,21.00
2013,07,25,11,39,21.00
2013,07,25,11,40,21.10
2013,07,25,11,41,21.00
2013,07,25,11,42,20.90
2013,07,25,11,43,20.80
2013,07,25,11,44,20.70
2013,07,25,11,45,20.60
2013,07,25,11,46,20.60
2013,07,25,11,47,20.60
2013,07,25,11,48,20.60
2013,07,25,11,49,20.60
2013,07,25,11,50,20.70
2013,07,25,11,51,20.70
2013,07,25,11,52,20.80
2013,07,25,11,53,20.90
2013,07,25,11,54,21.00
2013,07,25,11,55,21.10
2013,07,25,11,56,21.30
2013,07,25,11,57,21.40
2013,07,25,11,58,21.50
2013,07,25,11,59,21.40
2013,07,25,12,00,21.40
2013,07,25,12,01,21.30
2013,07,25,12,02,21.30
2013,07,25,12,03,21.30
2013,07,25,12,04,21.10
2013,07,25,12,05,21.00
2013,07,25,12,06,21.00
2013,07,25,12,07,20.90
2013,07,25,12,08,20.80
2013,07,25,12,09,20.90
2013,07,25,12,10,20.90
2013,07,25,12,11,21.00
2013,07,25,12,12,21.00
2013,07,25,12,13,21.00
2013,07,25,12,14,20.90
2013,07,25,12,15,20.90
2013,07,25,12,16,20.90
2013,07,25,12,17,20.90
2013,07,25,12,18,20.80
2013,07,25,12,19,20.80
2013,07,25,12,20,20.80
2013,07,25,12,21,20.90
2013,07,25,12,22,21.10
2013,07,25,12,23,21.20
2013,07,25,12,24,21.30
2013,07,25,12,25,21.40
2013,07,25,12,26,21.30
2013,07,25,12,27,21.30
2013,07,25,12,28,21.30
2013,07,25,12,29,21.30
2013,07,25,12,30,21.20
2013,07,25,12,31,21.30
2013,07,25,12,32,21.30
2013,07,25,12,33,21.30
2013,07,25,12,34,21.30
2013,07,25,12,35,21.40
2013,07,25,12,36,21.40
2013,07,25,12,37,21.40
2013,07,25,12,38,21.40
2013,07,25,12,39,21.30
2013,07,25,12,40,21.30
2013,07,25,12,41,21.10
2013,07,25,12,42,21.10
2013,07,25,12,43,21.20
2013,07,25,12,44,21.30
2013,07,25,12,45,21.30
2013,07,25,12,46,21.40
2013,07,25,12,47,21.40
2013,07,25,12,48,21.50
2013,07,25,12,49,21.60
2013,07,25,12,50,21.70
2013,07,25,12,51,21.80
2013,07,25,12,52,21.80
2013,07,25,12,53,21.80
2013,07,25,12,54,21.80
2013,07,25,12,55,21.70
2013,07,25,12,56,21.60
2013,07,25,12,57,21.60
2013,07,25,12,58,21.60
2013,07,25,12,59,21.50
2013,07,25,13,00,21.40
2013,07,25,13,01,21.60
2013,07,25,13,02,21.60
2013,07,25,13,03,21.70
2013,07,25,13,04,21.80
2013,07,25,13,05,21.90
2013,07,25,13,06,22.00
2013,07,25,13,07,22.00
2013,07,25,13,08,22.10
2013,07,25,13,09,22.10
2013,07,25,13,10,22.20
2013,07,25,13,11,22.30
2013,07,25,13,12,22.40
2013,07,25,13,13,22.50
2013,07,25,13,14,22.60
2013,07,25,13,15,22.70
2013,07,25,13,16,22.80
2013,07,25,13,17,22.80
2013,07,25,13,18,22.80
2013,07,25,13,19,22.90
2013,07,25,13,20,22.80
2013,07,25,13,21,22.80
2013,07,25,13,22,22.70
2013,07,25,13,23,22.70
2013,07,25,13,24,22.60
2013,07,25,13,25,22.60
2013,07,25,13,26,22.70
2013,07,25,13,27,22.70
2013,07,25,13,28,22.70
2013,07,25,13,29,22.70
2013,07,25,13,30,22.60
2013,07,25,13,31,22.60
2013,07,25,13,32,22.60
2013,07,25,13,33,22.50
2013,07,25,13,34,22.30
2013,07,25,13,35,22.30
2013,07,25,13,36,22.30
2013,07,25,13,37,22.30
2013,07,25,13,38,22.30
2013,07,25,13,39,22.30
2013,07,25,13,40,22.40
2013,07,25,13,41,22.30
2013,07,25,13,42,22.30
2013,07,25,13,43,22.30
2013,07,25,13,44,22.20
2013,07,25,13,45,22.10
2013,07,25,13,46,22.10
2013,07,25,13,47,22.10
2013,07,25,13,48,22.10
2013,07,25,13,49,22.10
2013,07,25,13,50,22.00
2013,07,25,13,51,22.10
2013,07,25,13,52,22.00
2013,07,25,13,53,21.90
2013,07,25,13,54,21.80
2013,07,25,13,55,21.70
2013,07,25,13,56,21.80
2013,07,25,13,57,22.00
2013,07,25,13,58,22.00
2013,07,25,13,59,22.00
2013,07,25,14,00,22.00
2013,07,25,14,01,22.00
2013,07,25,14,02,21.80
2013,07,25,14,03,21.70
2013,07,25,14,04,21.60
2013,07,25,14,05,21.60
2013,07,25,14,06,21.60
2013,07,25,14,07,21.70
2013,07,25,14,08,21.70
2013,07,25,14,09,21.70
2013,07,25,14,10,21.60
2013,07,25,14,11,21.40
2013,07,25,14,12,21.40
2013,07,25,14,13,21.30
2013,07,25,14,14,21.30
2013,07,25,14,15,21.30
2013,07,25,14,16,21.40
2013,07,25,14,17,21.60
2013,07,25,14,18,21.80
2013,07,25,14,19,22.00
2013,07,25,14,20,22.10
2013,07,25,14,21,22.30
2013,07,25,14,22,22.30
2013,07,25,14,23,22.30
2013,07,25,14,24,22.40
2013,07,25,14,25,22.50
2013,07,25,14,26,22.50
2013,07,25,14,27,22.60
2013,07,25,14,28,22.60
2013,07,25,14,29,22.50
2013,07,25,14,30,22.30
2013,07,25,14,31,22.20
2013,07,25,14,32,22.10
2013,07,25,14,33,21.90
2013,07,25,14,34,21.70
2013,07,25,14,35,21.60
2013,07,25,14,36,21.60
2013,07,25,14,37,21.50
2013,07,25,14,38,21.30
2013,07,25,14,39,21.30
2013,07,25,14,40,21.40
2013,07,25,14,41,21.60
2013,07,25,14,42,21.60
2013,07,25,14,43,21.50
2013,07,25,14,44,21.30
2013,07,25,14,45,21.20
2013,07,25,14,46,21.10
2013,07,25,14,47,21.10
2013,07,25,14,48,21.20
2013,07,25,14,49,21.30
2013,07,25,14,50,21.30
2013,07,25,14,51,21.30
2013,07,25,14,52,21.30
2013,07,25,14,53,21.30
2013,07,25,14,54,21.30
2013,07,25,14,55,21.30
2013,07,25,14,56,21.40
2013,07,25,14,57,21.40
2013,07,25,14,58,21.30
2013,07,25,14,59,21.10
2013,07,25,15,00,20.90
2013,07,25,15,01,20.90
2013,07,25,15,02,21.00
2013,07,25,15,03,20.90
2013,07,25,15,04,20.70
2013,07,25,15,05,20.50
2013,07,25,15,06,20.40
2013,07,25,15,07,20.40
2013,07,25,15,08,20.50
2013,07,25,15,09,20.50
2013,07,25,15,10,20.60
2013,07,25,15,11,20.70
2013,07,25,15,12,20.70
2013,07,25,15,13,20.60
2013,07,25,15,14,20.60
2013,07,25,15,15,20.70
2013,07,25,15,16,20.70
2013,07,25,15,17,20.60
2013,07,25,15,18,20.60
2013,07,25,15,19,20.60
2013,07,25,15,20,20.70
2013,07,25,15,21,20.80
2013,07,25,15,22,20.90
2013,07,25,15,23,21.00
2013,07,25,15,24,21.00
2013,07,25,15,25,21.00
2013,07,25,15,26,21.00
2013,07,25,15,27,21.00
2013,07,25,15,28,20.90
2013,07,25,15,29,20.90
2013,07,25,15,30,20.90
2013,07,25,15,31,20.90
2013,07,25,15,32,21.00
2013,07,25,15,33,21.00
2013,07,25,15,34,21.00
2013,07,25,15,35,21.00
2013,07,25,15,36,21.20
2013,07,25,15,37,21.20
2013,07,25,15,38,21.20
2013,07,25,15,39,21.20
2013,07,25,15,40,21.30
2013,07,25,15,41,21.30
2013,07,25,15,42,21.30
2013,07,25,15,43,21.30
2013,07,25,15,44,21.50
2013,07,25,15,45,21.60
2013,07,25,15,46,21.60
2013,07,25,15,47,21.50
2013,07,25,15,48,21.40
2013,07,25,15,49,21.40
2013,07,25,15,50,21.40
2013,07,25,15,51,21.40
2013,07,25,15,52,21.30
2013,07,25,15,53,21.30
2013,07,25,15,54,21.30
2013,07,25,15,55,21.30
2013,07,25,15,56,21.30
2013,07,25,15,57,21.30
2013,07,25,15,58,21.30
2013,07,25,15,59,21.30
2013,07,25,16,00,21.30
2013,07,25,16,01,21.20
2013,07,25,16,02,21.20
2013,07,25,16,03,21.20
2013,07,25,16,04,21.10
2013,07,25,16,05,21.10
2013,07,25,16,06,21.00
2013,07,25,16,07,21.00
2013,07,25,16,08,21.00
2013,07,25,16,09,21.10
2013,07,25,16,10,21.30
2013,07,25,16,11,21.30
2013,07,25,16,12,21.30
2013,07,25,16,13,21.40
2013,07,25,16,14,21.50
2013,07,25,16,15,21.60
2013,07,25,16,16,21.60
2013,07,25,16,17,21.60
2013,07,25,16,18,21.70
2013,07,25,16,19,21.70
2013,07,25,16,20,21.70
2013,07,25,16,21,21.60
2013,07,25,16,22,21.60
2013,07,25,16,23,21.60
2013,07,25,16,24,21.60
2013,07,25,16,25,21.60
2013,07,25,16,26,21.60
2013,07,25,16,27,21.60
2013,07,25,16,28,21.60
2013,07,25,16,29,21.60
2013,07,25,16,30,21.70
2013,07,25,16,31,21.70
2013,07,25,16,32,21.70
2013,07,25,16,33,21.70
2013,07,25,16,34,21.70
2013,07,25,16,35,21.80
2013,07,25,16,36,21.80
2013,07,25,16,37,21.80
2013,07,25,16,38,21.90
2013,07,25,16,39,21.90
2013,07,25,16,40,22.00
2013,07,25,16,41,22.00
2013,07,25,16,42,22.10
2013,07,25,16,43,22.10
2013,07,25,16,44,22.00
2013,07,25,16,45,22.00
2013,07,25,16,46,22.10
2013,07,25,16,47,22.00
2013,07,25,16,48,22.00
2013,07,25,16,49,22.10
2013,07,25,16,50,22.10
2013,07,25,16,51,22.10
2013,07,25,16,52,22.10
2013,07,25,16,53,22.20
2013,07,25,16,54,22.30
2013,07,25,16,55,22.30
2013,07,25,16,56,22.30
2013,07,25,16,57,22.30
2013,07,25,16,58,22.30
2013,07,25,16,59,22.20
2013,07,25,17,00,22.30
2013,07,25,17,01,22.40
2013,07,25,17,02,22.40
2013,07,25,17,03,22.50
2013,07,25,17,04,22.50
2013,07,25,17,05,22.50
2013,07,25,17,06,22.50
2013,07,25,17,07,22.50
2013,07,25,17,08,22.60
2013,07,25,17,09,22.70
2013,07,25,17,10,22.70
2013,07,25,17,11,22.80
2013,07,25,17,12,22.90
2013,07,25,17,13,22.90
2013,07,25,17,14,22.90
2013,07,25,17,15,23.00
2013,07,25,17,16,23.10
2013,07,25,17,17,23.20
2013,07,25,17,18,23.20
2013,07,25,17,19,23.20
2013,07,25,17,20,23.30
2013,07,25,17,21,23.40
2013,07,25,17,22,23.40